COSMOS 2251 DEB, 35668

Orbit data source: Space-Track

COSMOS 2251 DEB, 35668 is space debris in LEO originally from a launch on Wed, 16 Jun 1993 UTC launched from the Plesetsk Missile And Space Complex (PKMTR). The debris from Iridium 33, an American commercial communications satellite, has been tracked extensively since its accidental collision with the defunct Russian satellite Cosmos 2251 in 2009. This event, occurring at high speed in low Earth orbit (LEO), generated thousands of pieces of space debris, significantly increasing the risk of further collisions. The Iridium 33 debris cloud has impacted space traffic management and orbital debris mitigation strategies, making it a subject of ongoing study in space situational awareness.

Loading next visibility...
Identifier
35668, 1993-036APK
Orbit
LEO
Country
Flag of CISCIS
Related business
Manufacturer
Unknown
Mission
Spacecraft
Bus & Motor
Unknown
Mass
Unknown
Launch date (UTC)
1993-06-16 (33 years ago)
Launch vehicle
Unknown
Launch site
Plesetsk Missile And Space Complex (PKMTR)
Object type
Payload
Rocket body
Debris
Shape & HBR
Unknown shape, 0.1 m
Radar Cross Section
Small (<0.1 m²)

Expand to show TLE details & history
Last TLE update: 14 hours ago

TLE from 14 hours ago
0 COSMOS 2251 DEB
1 35668U 93036APK 26236.28346256  .00000890  00000-0  16546-3 0  9996
2 35668  74.0425  91.6285 0081385 132.4520 228.3568 14.64607839913730
Epoch: 2026-08-24T06:48Z
TLE epoch observation values (Epoch: 2026-08-24T06:48:11.165Z)
Latitude
-0.00001°
Longitude
17.01459°
Altitude
719.408 km
Speed
7.475 km/s
True Right ascension
06h 06m 30s
True Declination
0° 00' 00"
Sunlit
Object was in daylight at epoch
Visualization orbit readout
Latitude
Unknown
Longitude
Unknown
Altitude
Unknown
Speed
Unknown
Apparent Right ascension
Unknown
Apparent Declination
Unknown
Sunlit
N/A
Visualization observer readout
Local Sidereal Time
12:10:03
Azimuth
Unknown
Elevation
Unknown
Doppler factor
Unknown
Orbital elements
Apogee altitude
733.336 km
Perigee altitude
618.517 km
Semi-major axis
7,054.063 km
Eccentricity
0.00814
Inclination
74.0425°
RAAN
91.6285°
Arg. of periapsis
132.452°
True anomaly
227.66457°
Mean anomaly
228.3568°
Eccentric anomaly
228.01021°
Mean motion
3.6634 °/min
Orbital period
98.27 mins
BSTAR
0.00016546
Loading maneuver chart data...
Computing Atmospheric mass density...

Documentation

Showing up to 5 results
|